Regional Weather Roundup
Issued by NWS Green Bay, WI

Home | Current Version | Previous Version | Graphics & Text | Print | Product List | Glossary Off
Versions: 1 2 3 4 5 6 7 8 9 10 11 12 13 14 15 16 17 18 19 20 21 22 23 24 25 26 27 28 29 30 31 32 33 34 35 36 37 38 39 40 41 42 43 44 45 46 47 48 49 50

437
ASUS43 KGRB 291900
RWRGRB

NORTH-CENTRAL AND NORTHEAST WISCONSIN REGIONAL WEATHER ROUNDUP
NATIONAL WEATHER SERVICE GREEN BAY WI
200 PM CDT SUN MAY 29 2016

WIZ005-009-010>012-018-019-292000-
NORTH CENTRAL WISCONSIN

CITY           SKY/WX    TMP DP  RH WIND       PRES   REMARKS
IRONWOOD       PTSUNNY   66  63  88 W14       29.81R
MANITOWISH WTR NOT AVBL
ARBOR VITAE    NOT AVBL
EAGLE RIVER    NOT AVBL
LAND O LAKES   NOT AVBL
RHINELANDER    CLOUDY    70  57  63 W20G25    29.88S
PHILLIPS       NOT AVBL
ANTIGO         NOT AVBL
TOMAHAWK       NOT AVBL
MERRILL        NOT AVBL
$$

WIZ013-073-292000-
NORTHEAST WISCONSIN

CITY           SKY/WX    TMP DP  RH WIND       PRES   REMARKS
IRON MOUNTAIN  NOT AVBL
MARINETTE      CLOUDY    72  63  73 SW10      29.84F
$$

WIZ017-030-035>037-045-292000-
CENTRAL WISCONSIN

CITY           SKY/WX    TMP DP  RH WIND       PRES   REMARKS
MEDFORD        NOT AVBL
WAUSAU         CLOUDY    72  60  66 W16G22    29.88S
MOSINEE        LGT RAIN  66  64  94 SW14G20   29.92R
MARSHFIELD     LGT RAIN  65  61  87 W15G22    29.93R FOG
WISC RAPIDS    CLOUDY    72  56  57 W20G29    29.93S
STEVENS POINT  NOT AVBL
WAUPACA        NOT AVBL
SHAWANO        NOT AVBL
CLINTONVILLE   NOT AVBL
WAUTOMA        PTSUNNY  N/A N/A N/A W16G24    29.93R
$$

WIZ038-039-048-051-292000-
FOX VALLEY

CITY           SKY/WX    TMP DP  RH WIND       PRES   REMARKS
NWS GREEN BAY  PTSUNNY   72  63  73 W15G21    29.88S
APPLETON       PTSUNNY   70  61  73 W18       29.90S
OSHKOSH        CLOUDY    72  59  63 W6        29.91S
FOND DU LAC    MOSUNNY   75  59  57 W12G24    29.92S
$$

WIZ022-050-052-292000-
EAST CENTRAL WISCONSIN

CITY           SKY/WX    TMP DP  RH WIND       PRES   REMARKS
EPHRAIM        NOT AVBL
STURGEON BAY   NOT AVBL
MANITOWOC      NOT AVBL
SHEBOYGAN      CLOUDY    71  61  70 W12       29.92R
$$

LMZ563-521-522-541>543-292000-
LAKESHORE

STATION/POSITION TIME  TEMP    WIND        PRES    VSBY  WAVE
                       AIR SEA DIR/SP/G                  HT/PER
                 (UTC) (F)     (DEG/KT/KT) (MB)    (MI)  (FT/S)
SHEBOYGAN LKSHOR 1800   71     230/ 19/ 22 1013.0F
KEWAUNEE LKSHORE 1800   68     230/ 12/ 16 1011.4R
NORTHPORT PIER   1800   59     140/  6/ 10 1010.8F
N MID LAKE BUOY  1750   50 47  200/ 12/ 14 1011.2S         2/ 5
CHAMBERS ISLAND  1800   63     180/ 11/ 23 1011.2R
MENOMINEE LKSHOR 1800   66     200/  8/ 11 1009.8R
$$




USA.gov is the U.S. government's official web portal to all federal, state and local government web resources and services.